Location: Munkebjergskolens Observatorium
(55.3864°N, 10.3987°E)
Time: 05:07:01
(UTC+02:00)

CAS-6 - Pass Details

Date: 04 April 2023
Orbit: 610 x 632 km, 97.9° (Epoch: 31 May)

Event Time Altitude Azimuth Distance (km) Brightness Sun altitude
Exits shadow 22:53:52 54° 93° (E) 769 ? -21.6°
Maximum altitude 22:54:17 56° 69° (ENE) 748 ? -21.6°
Drops below altitude 10° 22:58:35 10° 351° (N) 2,019 ? -22.0°
Sets 23:00:50 0° 348° (NNW) 2,935 ? -22.2°
